www.pogodaiklimat.ru

Погода и климат >> Архив погоды >> Кука Острова >> Penrhyn


ПОГОДА в Penrhyn

  • Прогноз погоды в Penrhyn
  • Монитор погоды в Penrhyn
  • Климат города

АРХИВ ПОГОДЫ в Penrhyn

Время (UTC), дата Ветер
(напр.,м/с)
 
Видим.   Явления Облачность Т
(С)
Тd
(С)
f
(%)
Тe
(С)
Тes
(С)
Комфортность P
(гПа)
Po
(гПа)
Тmin
(С)
Tmax
(С)
R
(мм)
R24
(мм)
S
(см)
09 19.06 В 1 н/о н/о +27.2 +25.1 88 +39 +39 очень
душно
1010.6 1011.0
12 19.06 В 2 н/о н/о +27.7 +24.0 80 +38 +38 очень
душно
1009.9 1010.0 +32.2
15 19.06 Ю 1 н/о н/о +23.7 +20 +20 1009.6 1010.0
18 19.06 В 2 н/о н/о +28.2 +24.6 81 +40 +40 очень
душно
1011.5 1012.0 2
21 19.06 В 4 н/о н/о +31.6 +26.1 73 +48 +48 опасность
перегрева
1011.6 1012.0
03 20.06 В 3 н/о н/о +30.9 +24.9 70 +44 +44 опасность
перегрева
1008.9 1009.0
06 20.06 В 2 н/о н/о +28.0 +24.5 81 +39 +39 очень
душно
1010.4 1010.0
09 20.06 В 1 н/о н/о +27.9 +24.4 81 +39 +39 очень
душно
1011.0 1011.0
12 20.06 В 3 н/о н/о +27.8 +24.0 80 +39 +39 очень
душно
1010.4 1010.0 +32.6
15 20.06 В 2 н/о н/о +27.4 +24.5 84 +39 +39 очень
душно
1009.8 1010.0
18 20.06 В 2 н/о н/о +28.9 +24.8 79 +41 +41 опасность
перегрева
1011.3 1011.0
21 20.06 В 2 н/о н/о +30.2 +24.1 70 +42 +42 опасность
перегрева
1011.4 1011.0
00 21.06 ЮВ 2 н/о н/о +30.8 +24.9 71 +44 +44 опасность
перегрева
1009.5 1010.0 +27.2
06 21.06 ЮВ 4 н/о н/о +27.2 +25.2 89 +39 +39 очень
душно
1010.8 1011.0 1
09 21.06 В 3 н/о н/о +28.4 +25.2 83 +41 +41 опасность
перегрева
1011.6 1012.0
12 21.06 ЮВ 4 н/о н/о +28.1 +25.2 84 +41 +41 опасность
перегрева
1010.4 1010.0 +31.3
21 21.06 В 2 н/о н/о +30.4 +25.7 76 +45 +45 опасность
перегрева
1011.5 1012.0
00 22.06 В 3 н/о н/о +30.2 +24.8 73 +43 +43 опасность
перегрева
1009.1 1009.0 +26.5
06 22.06 В 2 н/о н/о +28.6 +25.3 82 +42 +42 опасность
перегрева
1010.0 1010.0
09 22.06 ЮВ 2 н/о н/о +28.3 +25.1 83 +41 +41 опасность
перегрева
1010.5 1011.0
12 22.06 ЮВ 3 н/о н/о +28.0 +24.7 82 +40 +40 очень
душно
1009.2 1009.0 +31.0
15 22.06 ЮВ 3 н/о н/о +27.5 +24.9 86 +39 +39 очень
душно
1008.7 1009.0
18 22.06 В 2 н/о н/о +28.2 +25.2 84 +41 +41 опасность
перегрева
1009.8 1010.0 1
21 22.06 В 2 н/о н/о +30.1 +25.4 76 +44 +44 опасность
перегрева
1010.2 1010.0
00 23.06 В 2 н/о н/о +30.6 +26.0 77 +46 +46 опасность
перегрева
1008.6 1009.0 +26.3
06 23.06 СВ 4 н/о н/о +26.5 +24.7 90 +38 +38 очень
душно
1008.5 1009.0 5
09 23.06 СВ 3 н/о н/о +26.6 +24.5 88 +37 +37 очень
душно
1010.5 1011.0
12 23.06 В 2 н/о н/о +26.6 +23.5 83 +36 +36 очень
душно
1009.4 1009.0 +31.5
15 23.06 В 1 н/о н/о +26.2 +24.4 90 +37 +37 очень
душно
1009.5 1010.0
18 23.06 ЮВ 2 н/о н/о +27.1 +24.6 86 +38 +38 очень
душно
1010.6 1011.0
21 23.06 ЮВ 5 н/о н/о +26.2 +24.2 89 +36 +36 очень
душно
1011.8 1012.0
00 24.06 В 3 н/о н/о +27.6 +24.7 84 +39 +39 очень
душно
1009.6 1010.0 +25.7 1
03 24.06 В 2 н/о н/о +28.6 +25.2 82 +42 +42 опасность
перегрева
1009.1 1009.0
06 24.06 В 2 н/о н/о +27.3 +24.9 87 +39 +39 очень
душно
1010.9 1011.0
09 24.06 В 2 н/о н/о +26.7 +24.4 87 +37 +37 очень
душно
1011.4 1011.0
15 24.06 В 2 н/о н/о +26.7 +24.6 88 +38 +38 очень
душно
1009.4 1009.0
18 24.06 В 2 н/о н/о +28.7 +25.6 83 +42 +42 опасность
перегрева
1010.9 1011.0
21 24.06 В 1 н/о н/о +31.4 +26.1 74 +47 +47 опасность
перегрева
1011.6 1012.0
00 25.06 В 1 н/о н/о +31.0 +25.8 74 +46 +46 опасность
перегрева
1010.2 1010.0 +26.5 1
03 25.06 В 1 н/о н/о +29.7 +25.2 77 +43 +43 опасность
перегрева
1009.1 1009.0
06 25.06 В 2 н/о н/о +28.5 +25.4 83 +42 +42 опасность
перегрева
1011.1 1011.0
12 25.06 В 4 н/о н/о +27.8 +25.2 86 +40 +40 очень
душно
1010.7 1011.0 0.4
15 25.06 В 4 н/о н/о +27.4 +24.5 84 +39 +39 очень
душно
1009.7 1010.0
18 25.06 В 4 н/о н/о +28.6 +25.2 82 +42 +42 опасность
перегрева
1011.0 1011.0
21 25.06 В 2 н/о н/о +31.5 +26.2 74 +48 +48 опасность
перегрева
1011.8 1012.0
00 26.06 В 2 н/о н/о +32.4 +26.2 70 +49 +49 опасность
перегрева
1009.9 1010.0 +27.3
06 26.06 В 2 н/о н/о +28.1 +23.8 78 +39 +39 очень
душно
1010.2 1010.0

 

Местоположение метеостанции Penrhyn (Кука Острова): широта -9.03 долгота -158.00 высота над уровнем моря 1 м.

В архиве по умолчанию представлена погода в Penrhyn за последнюю неделю. Архивные данные за месяц целиком и за предыдущие месяцы, начиная с января 2011 года, Вы можете получить, выбрав интересующий диапазон дат из раскрывающегося списка и нажав кнопку "Ввод!".

Внимание! Время в таблицах - всемирное. Для получения местного времени необходимо прибавить поправку, которая в Penrhyn равна -10 ч.

Смотрите также архив погоды в соседних городах и на ближайших метеорологических станциях:

Погода в Manihiki (Кука Острова) (366 км)
Погода в Bora-Bora Airport (Французская Полинезия) (1070 км)
Погода в Aitutaki (Кука Острова) (1105 км)
Погода в Christmas (Кирибати) (1226 км)
Погода в Tahiti-Faaa (Французская Полинезия) (1313 км)
Погода в Rarotonga (Кука Острова) (1367 км)
Погода в Takaroa (Французская Полинезия) (1539 км)
Погода в Lufi-Lufi (Самоа) (1573 км)
Погода в Le Mafa (Самоа) (1580 км)
Погода в Apia (Американское Самоа) (1584 км)

Пояснения к столбцам:

Ветер - указаны скорость ветра в м/с - средняя за 10 мин, порывы в срок и между сроками (в фигурных скобках) и направление, откуда дует ветер: С - северный, СВ - северо-восточный, В - восточный, ЮВ - юго-восточный, Ю - южный, ЮЗ - юго-западный, З - западный, СЗ - северо-западный.
Видимость - горизонтальная дальность видимости в метрах или километрах. При видимости от 1 до 10 км при отсутствии осадков обычно наблюдается дымка, при ухудшении видимости до 1 км и менее - туман. В сухую погоду видимость может ухудшаться дымом, пылью или мглою.
Явления - указаны атмосферные явления, наблюдавшиеся в срок или в последний час перед сроком; фигурными скобками обозначены явления, наблюдавшиеся между сроками (за 1-3 часа до срока); квадратными скобками обозначены град или гололедные отложения с указанием их диаметра в мм.
Облачность - указаны через наклонную черту общая и нижняя облачность в баллах и высота нижней границы облаков в метрах; квадратными скобками обозначены формы облаков: Ci - перистые, Cs - перисто-слоистые, Cc - перисто-кучевые, Ac - высококучевые, As - высокослоистые, Sc - слоисто-кучевые, Ns - слоисто-дождевые, Cu - кучевые, Cb - кучево-дождевые. Подробнее классификацию облаков см. в Атласе облаков (PDF).
T - Температура воздуха - температура, измеренная на высоте 2 м над землей.
Td - Температура точки росы - температура, при понижении до которой содержащийся в воздухе водяной пар достигнет насыщения.
f - Относительная влажность воздуха - влажноcть воздуха, измеренная на высоте 2 м над землей.
Te - Эффективная температура - температура, которую ощущает одетый по сезону человек в тени. Характеристика душности погоды. При расчете учитывается влияние влажности воздуха и скорости ветра на теплоощущения человека.
Tes - Эффективная температура на солнце - температура, которую ощущает человек, с поправкой на солнечный нагрев. Характеристика знойности погоды. Зависит от высоты солнца над горизонтом, облачности и скорости ветра. Ночью, в пасмурную погоду, а также при ветре 12 м/с и более поправка равна нулю.
P - Атмосферное давление - приведенное к уровню моря атмосферное давление.
Po - Атмосферное давление - измеренное на уровне метеостанции атмосферное давление.
Tmin - Минимальная температура - минимум температуры воздуха на высоте 2 м над землей.
Tmax - Максимальная температура - максимум температуры воздуха на высоте 2 м над землей.
R - Количество осадков - Количество выпавших осадков за период времени, мм. При наведении курсора мыши на число - период времени, за который выпало указанное количество осадков.
R24 - Количество осадков - Количество выпавших осадков за 24 часа, мм.
S - Снежный покров - Высота снежного покрова, см. При наведении курсора мыши на число - состояние снежного покрова и степень покрытия местности в баллах.